RH
17 17 17 17 17 17 17 18 18 18 19 18 17 16 16 16 17 17 15 14 13 13 13 12 12 11 11 12 12 12 10 10 10 11 12 10 10 11 12 12 13 14 15 16 15 15 14 14 14 14 16 16 18 19 19 22 26 30 30 38 42 39 39 37 42 44 38 37 37 38 37 37 38 37 41 42 43 45 46 46 48 50 52 53 53 55 55 53
18 18 18 19 19 19 19 19 19 19 19 18 17 17 16 17 18 17 16 15 14 14 13 13 12 12 12 12 13 11 10 10 10 11 10 9 10 11 12 12 13 14 14 14 14 14 14 14 14 14 17 18 18 20 25 29 32 32 31 40 44 39 37 32 35 38 35 39 41 43 42 41 42 40 42 44 44 45 47 47 49 50 52 54 54 56 55 55
17 18 18 19 19 20 20 20 19 20 20 19 17 17 17 18 19 18 17 16 15 14 14 13 13 12 13 13 12 11 10 11 11 10 10 10 11 12 12 13 14 14 13 13 13 14 14 14 13 15 19 19 19 25 30 31 32 30 30 40 40 31 31 29 28 31 33 37 42 46 44 43 44 42 44 45 45 46 47 48 48 47 50 53 55 56 55 56
18 18 19 19 19 20 21 20 20 20 21 20 19 18 18 18 19 18 18 17 16 15 14 14 13 13 14 13 13 11 10 12 11 11 11 11 13 12 13 13 13 14 13 13 13 14 15 14 14 17 20 21 23 28 30 29 30 28 28 37 36 29 30 30 27 28 28 31 38 43 41 43 45 45 45 44 48 48 44 46 46 45 49 52 54 54 53 57
18 18 18 18 18 19 20 21 21 20 21 21 21 20 19 19 18 18 18 18 17 16 15 15 14 14 14 14 13 11 12 13 11 11 12 12 13 13 13 13 13 13 13 13 13 14 15 15 15 18 21 24 28 29 29 29 28 27 28 30 30 29 30 29 28 30 30 30 33 37 39 43 45 45 46 43 48 47 42 45 45 45 48 49 51 51 50 55
18 18 18 17 17 18 19 20 21 21 21 21 21 21 21 20 18 18 18 18 18 17 17 16 15 15 15 13 12 12 14 13 12 12 12 12 13 13 13 13 13 13 13 13 14 15 15 16 17 19 21 26 29 28 28 28 27 28 28 27 26 28 29 30 33 35 36 36 37 40 42 44 44 45 46 43 45 46 44 44 44 45 46 46 49 49 50 54
18 18 18 17 17 17 19 20 21 21 21 21 21 22 22 21 20 18 18 18 18 18 17 17 16 16 15 13 11 11 12 12 12 12 12 12 13 13 13 13 14 14 14 14 15 16 15 17 18 19 21 25 28 27 28 27 26 27 28 28 28 28 31 33 35 36 37 39 41 43 46 46 44 45 46 43 44 46 44 43 44 45 45 46 48 49 52 57
19 19 18 18 18 18 19 19 20 21 22 21 21 22 22 23 22 19 19 19 19 18 18 18 17 17 16 14 13 13 12 12 12 12 12 12 12 13 14 14 15 15 15 15 16 17 16 17 17 17 19 23 26 26 27 26 26 27 27 29 29 28 31 33 36 36 37 39 40 43 45 47 46 44 43 42 42 44 43 43 44 45 45 45 49 53 56 61
20 20 19 18 18 18 19 20 19 20 22 22 21 22 22 23 24 21 20 20 20 20 19 19 18 17 17 15 14 14 13 12 12 12 12 12 13 13 14 15 15 16 16 16 17 17 17 17 17 17 19 21 23 23 25 25 24 26 25 26 27 27 30 32 36 38 37 37 39 42 44 47 48 43 42 42 41 42 42 42 44 45 44 44 51 56 59 63
21 21 20 19 19 18 19 20 20 19 21 23 22 22 22 23 24 24 22 20 21 21 20 20 19 18 17 16 15 15 13 12 12 12 12 12 12 13 14 14 15 17 17 17 17 18 17 18 17 18 20 22 22 22 24 23 22 24 24 23 24 26 29 32 35 38 40 39 38 39 39 43 44 40 41 43 41 40 40 42 44 45 43 45 52 57 59 64
21 21 21 20 19 19 19 20 21 20 20 22 24 23 23 23 23 25 25 22 22 22 21 20 19 19 18 17 18 16 14 13 12 12 12 12 12 13 14 14 15 17 17 17 17 18 18 18 18 18 20 20 22 23 23 23 22 23 23 22 22 24 27 29 30 34 38 41 41 39 36 37 38 38 41 42 40 39 38 41 42 42 42 45 51 57 60 64
21 22 22 20 20 20 19 19 20 21 20 21 23 25 24 25 24 24 25 25 24 23 21 20 20 19 18 19 20 17 14 14 12 12 13 13 13 13 14 15 15 16 17 18 18 18 18 19 19 19 19 19 20 21 22 23 22 22 21 20 20 21 24 25 27 30 31 38 43 40 38 38 36 39 40 40 39 38 36 37 39 40 41 43 48 54 57 62
21 21 22 21 20 20 20 20 19 20 20 20 21 24 24 26 26 25 25 26 25 23 22 21 21 20 20 21 20 16 15 14 12 12 13 13 14 13 14 15 15 16 17 17 18 18 18 19 19 19 19 18 19 20 20 20 21 21 20 20 20 20 24 26 25 27 27 32 36 35 40 44 39 38 39 39 38 36 35 35 36 39 40 42 46 48 53 58
20 20 21 21 20 21 20 20 20 20 20 20 20 21 24 25 26 27 26 26 26 25 23 22 21 21 22 21 18 17 17 15 14 13 13 14 15 14 15 15 15 15 16 17 18 18 18 19 19 19 19 19 19 20 19 19 20 20 20 20 19 22 28 27 24 25 27 31 31 28 36 45 43 38 38 38 37 35 33 33 34 37 39 41 43 44 48 53
19 20 20 21 21 21 21 20 20 20 20 20 20 20 23 25 27 28 27 26 27 27 25 24 23 22 23 21 18 18 17 16 16 15 14 15 16 15 15 15 15 15 16 16 17 18 18 19 19 18 19 19 18 19 19 19 19 18 22 23 19 21 26 22 21 24 28 31 29 26 31 39 40 37 36 37 37 36 34 34 35 36 39 41 42 41 42 48
19 20 21 21 21 20 21 20 20 20 19 20 20 20 22 25 27 28 28 27 28 28 27 27 25 24 25 23 20 19 18 17 18 16 16 15 16 16 15 15 15 15 15 16 17 18 19 19 19 19 18 18 18 18 19 20 20 18 22 25 19 19 21 18 19 22 24 28 28 26 30 36 36 33 34 36 37 37 35 35 36 37 40 41 41 40 39 43
21 21 22 23 23 22 21 21 21 20 20 19 19 20 22 24 26 28 28 28 28 29 29 30 29 26 27 26 22 21 20 19 18 17 16 16 16 16 15 15 14 15 15 16 17 17 18 19 19 19 18 19 18 18 22 27 27 21 20 22 18 16 19 20 20 20 20 25 29 28 27 32 34 30 32 36 37 38 36 35 36 38 40 42 42 42 40 40
23 23 23 23 24 23 23 22 22 21 20 20 19 19 22 23 25 28 29 29 29 29 29 30 30 29 29 26 22 22 21 20 19 18 17 16 16 16 16 15 15 14 14 15 16 16 17 18 18 20 19 20 18 19 25 29 27 24 21 22 20 18 19 20 20 21 21 22 28 32 30 30 32 29 31 36 37 38 37 35 36 38 40 41 42 43 43 42
25 24 24 24 24 24 24 24 23 22 21 21 20 20 23 24 25 28 30 30 30 29 29 30 29 30 30 26 24 24 23 21 19 18 18 16 16 16 16 16 15 15 15 15 16 15 16 17 18 19 19 20 19 19 23 24 22 21 22 22 21 21 20 19 20 21 21 22 27 31 32 31 32 32 31 34 37 37 38 37 38 39 38 39 40 42 43 44
26 26 25 25 25 25 24 24 23 22 22 22 21 21 24 25 26 29 31 31 30 30 29 29 29 29 30 27 25 25 24 22 20 19 19 18 17 17 16 17 17 16 15 16 17 15 16 17 18 19 19 19 19 19 19 20 20 20 21 21 20 22 22 20 20 22 21 23 27 27 29 30 33 34 30 30 33 33 35 37 38 38 37 37 38 39 41 43
26 26 26 26 26 26 26 24 23 23 22 23 23 24 26 26 26 29 31 30 30 31 30 29 28 29 30 29 27 26 26 24 22 20 19 19 18 17 18 18 18 18 17 16 16 15 15 17 19 18 18 19 19 19 18 20 20 19 22 21 21 23 22 20 21 23 22 23 29 28 26 28 31 30 27 27 30 29 31 33 34 35 34 35 36 36 37 40
25 25 25 25 25 26 27 25 24 23 23 23 24 27 28 27 28 29 31 32 32 32 30 29 29 29 31 30 28 27 27 26 24 22 20 20 19 19 19 19 19 20 19 16 16 18 16 18 19 17 17 19 19 20 20 20 20 20 21 21 25 24 21 23 23 23 22 23 30 30 25 28 29 26 24 25 26 26 27 30 31 32 32 32 33 34 35 36
26 25 25 25 25 25 26 27 25 24 24 23 25 28 28 28 29 29 32 34 34 33 31 31 31 30 32 31 29 28 27 27 26 24 22 21 21 20 20 20 19 20 19 17 18 20 20 19 18 16 17 18 19 20 20 20 20 21 21 22 27 24 21 27 26 23 24 23 26 28 26 29 29 26 24 24 25 26 27 30 31 32 32 31 31 32 34 34
27 27 26 26 26 25 27 28 27 26 26 24 25 27 27 28 28 29 34 36 34 33 33 33 33 32 33 32 30 29 28 28 28 26 24 23 22 21 21 21 20 20 21 20 19 19 20 20 17 16 17 18 19 20 19 21 22 23 22 21 24 22 20 24 22 20 22 25 26 24 23 28 30 29 28 27 27 27 28 30 31 32 31 31 30 31 33 35
29 29 28 28 27 27 27 28 29 28 27 27 28 28 27 28 27 29 35 36 36 36 35 34 34 34 33 32 31 30 29 29 28 27 26 24 24 22 22 22 22 23 23 21 20 20 20 20 18 17 18 18 19 20 20 20 22 23 21 20 21 21 20 20 18 17 20 27 29 22 21 28 31 28 28 30 29 27 27 27 28 29 29 30 30 30 32 34
30 30 30 30 29 28 28 30 31 30 29 30 31 29 28 28 27 30 36 39 38 37 35 35 35 34 33 32 32 31 29 29 28 27 27 26 25 24 24 23 23 24 23 22 22 22 21 20 19 19 19 19 19 20 20 19 21 22 22 21 20 19 20 19 19 18 19 25 26 21 21 26 27 24 24 27 26 25 26 24 24 26 26 27 27 28 30 32
30 31 31 31 31 30 30 31 32 31 30 31 30 29 29 29 27 31 39 39 37 37 38 37 37 36 34 33 33 31 30 30 28 28 28 27 26 25 25 25 24 24 24 24 24 23 22 21 21 21 20 21 21 21 21 20 20 23 22 22 21 20 22 21 20 19 19 21 21 19 20 21 21 23 25 25 21 21 24 24 25 28 28 26 23 25 28 30
28 30 31 31 31 31 31 31 31 31 30 30 29 29 30 28 28 36 41 37 34 37 39 38 38 36 35 35 34 32 33 32 30 30 29 29 28 26 26 26 25 25 25 24 26 27 25 23 23 23 22 23 22 22 22 21 21 23 22 21 21 22 23 22 21 20 20 20 19 20 22 21 19 21 24 23 19 18 20 22 24 26 28 29 26 25 26 29
27 27 29 31 31 31 31 32 31 31 31 30 30 30 29 29 32 38 40 35 34 37 38 39 38 37 36 37 35 34 35 34 32 32 31 29 29 28 27 27 26 27 26 23 26 29 27 24 24 24 24 24 24 23 22 22 23 23 22 21 22 23 23 23 24 24 24 23 20 22 23 21 19 19 22 23 23 21 20 22 23 23 25 28 26 24 24 29
30 27 27 28 29 32 31 31 32 31 30 31 30 29 29 32 36 39 38 34 35 38 39 38 38 38 37 38 38 37 36 35 33 33 32 30 29 29 28 29 27 27 28 26 26 27 27 26 26 25 25 26 25 24 23 23 23 23 22 23 24 25 25 24 25 25 26 26 23 23 23 21 22 21 22 24 24 23 22 21 23 23 23 24 23 22 23 27
35 33 30 27 27 29 31 31 31 30 30 29 29 29 31 35 38 38 37 34 35 38 38 38 39 38 38 39 41 40 38 37 36 34 33 31 30 30 29 30 29 29 30 29 27 26 26 27 27 26 26 26 25 25 24 24 24 24 24 25 26 27 28 28 29 29 28 29 28 26 25 25 25 24 23 24 23 21 22 22 22 22 22 23 23 24 24 26
37 38 37 32 27 27 30 31 30 30 30 29 29 30 33 38 38 36 34 33 37 40 39 40 41 40 39 40 41 42 41 40 38 36 35 33 32 32 31 31 30 31 33 33 32 30 27 27 27 27 27 27 27 29 28 26 26 26 27 28 29 29 31 31 32 31 30 30 31 28 28 28 26 24 23 23 22 22 23 23 22 22 22 22 23 25 27 28
36 37 39 39 33 27 27 29 28 29 29 28 30 31 34 39 38 34 31 32 38 41 40 41 42 42 42 42 42 43 44 43 41 39 37 35 34 33 31 32 31 32 36 37 37 35 32 31 29 28 28 27 29 32 32 30 29 29 28 30 31 31 34 35 33 31 30 31 32 30 29 28 27 27 25 24 24 23 22 23 23 22 22 22 24 25 27 29
40 37 38 40 40 34 29 28 27 27 26 27 30 32 37 40 37 33 31 32 36 38 38 40 42 43 44 44 44 44 45 45 43 42 40 38 37 36 33 33 32 33 36 38 39 38 38 37 33 31 31 30 30 33 33 32 32 32 31 31 33 33 36 37 34 33 32 33 35 33 31 29 30 31 27 25 25 23 22 23 23 24 23 23 24 24 26 28
46 42 40 41 43 42 37 33 28 25 24 26 29 33 39 40 34 32 32 33 35 36 37 40 42 44 45 44 44 44 45 46 44 43 43 41 40 39 37 35 33 33 34 37 39 38 39 39 36 35 34 32 33 33 33 34 35 35 34 34 35 36 36 38 39 39 38 37 36 35 33 30 30 30 27 26 26 25 24 25 24 24 24 24 23 23 25 27
50 47 45 45 47 47 43 39 34 29 25 26 30 35 37 34 31 31 32 33 34 35 36 40 42 45 46 45 46 46 46 47 47 46 45 43 42 41 39 37 35 34 35 37 40 39 39 40 37 36 36 35 35 35 34 36 37 37 38 38 38 38 38 41 44 43 42 41 39 37 36 33 32 33 30 28 28 28 27 27 26 26 25 25 24 23 24 26
49 49 48 48 50 50 47 43 39 35 30 29 33 35 33 32 31 30 31 32 34 35 37 40 41 43 44 45 47 47 47 47 48 48 47 46 44 42 40 39 37 35 35 37 40 40 40 42 40 37 38 38 37 37 37 37 38 39 40 39 39 39 40 42 44 45 44 44 42 40 39 37 36 37 35 32 32 31 30 29 29 28 28 28 28 26 26 27
44 47 49 49 50 51 50 45 40 39 38 36 36 36 33 33 32 29 29 31 32 35 39 42 42 42 42 44 47 49 49 49 49 48 49 48 46 44 42 41 39 37 37 38 41 42 41 43 43 40 39 40 39 39 40 39 38 40 41 40 41 42 43 44 46 46 46 46 45 43 41 38 38 38 38 37 37 35 34 32 31 31 30 30 30 29 29 28
40 46 50 51 50 51 51 49 44 44 44 40 38 38 37 35 34 31 31 31 31 33 38 41 42 42 43 44 47 51 52 51 50 50 50 50 49 47 44 43 42 41 40 40 42 43 42 43 45 43 41 41 41 40 42 42 41 42 42 42 42 43 45 46 47 46 46 47 47 47 44 39 39 40 38 38 38 37 37 37 35 34 32 33 32 30 29 28
40 47 50 51 54 55 54 55 52 50 46 42 42 43 40 39 37 33 32 33 32 33 36 39 41 42 43 43 47 51 53 53 53 54 53 51 51 51 48 46 46 45 45 44 44 45 46 46 46 45 43 43 42 41 42 44 44 44 44 44 44 44 45 46 47 45 45 46 46 49 47 41 39 40 38 38 37 37 38 38 38 36 35 36 35 32 30 29
41 50 49 50 56 58 58 61 62 58 50 43 44 46 45 43 41 38 35 34 34 35 37 40 40 40 41 43 45 48 51 54 56 56 56 54 53 54 52 50 50 49 49 48 47 47 49 49 48 48 46 44 44 43 43 44 44 42 43 44 44 45 45 46 46 45 44 44 43 46 45 40 40 41 39 38 38 37 37 37 38 37 36 37 38 37 36 33
42 49 51 53 57 60 64 69 70 67 62 53 48 50 49 46 43 41 39 38 38 38 39 41 41 41 42 43 45 47 50 55 57 57 58 56 56 56 54 53 54 53 52 51 50 49 50 50 49 49 47 46 46 45 45 44 44 43 43 43 43 43 43 45 46 45 46 45 43 43 44 41 40 41 39 38 38 38 38 37 37 38 37 38 39 39 40 38
43 45 49 53 57 63 69 74 73 72 71 65 57 54 51 48 46 45 45 42 42 42 42 43 43 42 42 43 45 48 50 55 58 58 58 58 58 57 56 56 57 56 55 55 53 52 52 52 51 50 49 50 49 46 46 45 44 45 45 43 43 43 43 43 45 47 50 49 45 45 45 41 40 42 40 39 39 39 38 38 37 38 39 39 40 40 42 43
46 46 49 52 58 67 71 71 73 75 75 72 66 59 54 53 51 50 49 46 44 45 47 46 44 43 43 44 47 49 52 55 57 58 58 59 58 58 58 59 58 58 58 58 57 55 54 54 54 53 54 55 54 50 48 47 46 46 46 45 45 44 44 45 46 49 51 49 46 46 44 41 42 45 44 41 40 40 39 39 38 39 40 41 42 43 43 44
47 47 50 52 59 70 73 70 72 76 77 77 73 66 62 61 56 54 54 53 50 50 51 51 49 46 44 46 49 52 53 55 57 58 59 59 59 58 60 61 60 60 61 61 59 58 56 57 56 55 56 57 56 53 51 51 49 48 48 47 45 45 46 47 48 49 48 47 48 47 44 43 44 47 46 44 43 42 42 41 40 41 41 41 42 44 45 45
49 49 49 52 58 67 71 73 75 76 77 80 80 73 70 69 64 60 60 59 56 55 56 56 54 49 47 48 52 55 55 55 58 60 60 59 59 58 60 61 60 62 64 63 62 61 60 60 60 58 56 55 55 56 55 53 52 52 52 51 48 47 47 50 51 49 48 49 49 47 46 47 47 48 49 47 46 47 47 45 44 43 43 43 44 45 47 48
51 51 50 54 61 65 65 68 73 77 78 82 84 79 75 73 71 68 66 63 61 60 60 60 56 53 53 52 54 59 59 58 59 61 60 59 60 59 61 61 61 64 67 65 64 64 63 63 63 60 58 55 55 58 59 58 56 55 55 54 52 51 51 52 53 50 50 52 50 48 51 53 51 48 48 47 46 48 48 46 45 46 45 46 47 45 46 48
51 54 55 59 65 68 67 66 71 78 81 83 86 85 82 80 79 76 72 68 67 65 65 64 60 58 57 56 58 63 65 65 64 63 61 60 60 60 60 61 62 65 67 65 63 64 65 65 63 62 62 60 58 59 60 62 61 58 57 57 58 58 57 56 54 51 51 53 50 48 51 53 50 48 49 49 48 47 46 45 44 44 43 43 44 43 43 46
52 57 59 62 68 69 68 69 75 82 87 88 89 89 87 87 85 82 76 75 75 69 67 68 65 61 59 58 61 66 69 71 70 67 65 63 62 62 63 63 63 63 65 65 64 66 66 65 64 65 65 64 62 62 60 59 60 58 57 57 58 60 60 57 55 54 53 53 50 48 51 50 47 47 50 50 48 45 43 43 41 39 39 39 40 40 41 44
55 59 60 68 74 70 68 72 77 84 90 93 93 89 87 88 88 85 81 80 79 74 70 70 69 67 65 64 65 67 70 72 73 71 69 67 66 65 66 68 67 67 68 68 69 69 68 68 68 67 68 66 64 65 63 60 60 59 57 57 58 58 58 57 57 56 54 53 52 51 52 48 45 46 49 50 49 44 41 40 38 36 36 37 38 40 42 43
57 63 65 73 76 73 75 78 79 86 90 91 92 90 88 88 85 84 86 83 80 78 74 72 73 73 74 72 70 69 70 72 74 73 72 71 70 68 69 71 71 71 71 71 73 73 71 72 72 71 71 69 64 67 68 65 63 62 60 61 61 59 57 57 57 56 55 54 53 52 51 46 44 46 49 50 48 44 40 39 37 36 36 37 40 41 42 43
57 66 70 75 75 71 77 81 85 92 90 83 84 87 89 89 84 86 91 86 81 81 77 75 77 77 78 77 74 72 73 73 75 73 72 73 73 71 73 74 74 74 75 75 76 74 73 75 77 76 75 71 66 68 70 70 70 68 64 63 63 60 59 57 56 54 55 54 53 52 48 43 42 45 47 47 43 40 40 40 39 39 38 39 42 43 43 44